This is the latest recevied weather packets stored in our database for station/object K1WJY. If no packets are shown the sender has not sent any weather packets the latest 10 day(s).
| Time | Temp. | Humidity | Pressure | Rain* | Wind** | Luminosity | Snow |
|---|---|---|---|---|---|---|---|
| 1787670622 | 23.89° C | 77% | 1015.1 hPa | 0 mm | - | 626 W/m² | - |
| 1787670322 | 23.89° C | 76% | 1015.4 hPa | 0 mm | - | 642 W/m² | - |
| 1787670017 | 23.89° C | 77% | 1015.3 hPa | 0 mm | - | 665 W/m² | - |
| 1787669712 | 23.89° C | 78% | 1015.6 hPa | 0 mm | - | 672 W/m² | - |
| 1787669407 | 23.89° C | 78% | 1015.5 hPa | 0 mm | - | 678 W/m² | - |
| 1787669102 | 23.33° C | 79% | 1015.5 hPa | 0 mm | - | 677 W/m² | - |
| 1787668798 | 23.33° C | 77% | 1015.6 hPa | 0 mm | - | 685 W/m² | - |
| 1787668494 | 23.89° C | 79% | 1015.4 hPa | 0 mm | - | 716 W/m² | - |
| 1787668189 | 23.89° C | 79% | 1015.8 hPa | 0 mm | - | 600 W/m² | - |
| 1787667884 | 22.78° C | 82% | 1015.6 hPa | 0 mm | - | 567 W/m² | - |
| 1787667579 | 22.78° C | 83% | 1015.9 hPa | 0 mm | - | 364 W/m² | - |
| 1787667276 | 23.33° C | 81% | 1015.9 hPa | 0 mm | - | 501 W/m² | - |
| 1787666975 | 23.33° C | 80% | 1015.7 hPa | 0 mm | - | 710 W/m² | - |
| 1787666671 | 23.33° C | 83% | 1015.5 hPa | 0 mm | - | 636 W/m² | - |
| 1787666370 | 23.33° C | 83% | 1015.8 hPa | 0 mm | - | 615 W/m² | - |
| 1787666067 | 22.78° C | 82% | 1015.5 hPa | 0 mm | - | 620 W/m² | - |
| 1787665767 | 22.78° C | 82% | 1015.5 hPa | 0 mm | - | 592 W/m² | - |
| 1787665462 | 22.78° C | 84% | 1015.5 hPa | 0 mm | - | 579 W/m² | - |
| 1787665162 | 22.78° C | 85% | 1015.5 hPa | 0 mm | - | 570 W/m² | - |
| 1787664860 | 22.78° C | 87% | 1015.5 hPa | 0 mm | - | 545 W/m² | - |
| 1787664559 | 22.22° C | 86% | 1015.7 hPa | 0 mm | - | 481 W/m² | - |
| 1787664255 | 21.67° C | 89% | 1015.6 hPa | 0 mm | - | 524 W/m² | - |
| 1787663953 | 21.67° C | 90% | 1015.6 hPa | 0 mm | - | 510 W/m² | - |
| 1787663649 | 21.11° C | 92% | 1015.7 hPa | 0 mm | - | 522 W/m² | - |
| 1787663344 | 20.56° C | 92% | 1015.7 hPa | 0 mm | - | 509 W/m² | - |
* Rain latest hour (hover to see other rain measurements)
** Current wind speed in m/s (hover to see current wind gust speed)